Location: Endfield
(51.6667°N, 0.0667°W)
Time: 12:32:43
(UTC+00:00)

AO-27 - Pass Details

Date: 21 September 2024
Orbit: 783 x 796 km, 98.8° (Epoch: 08 October)

Event Time Altitude Azimuth Distance (km) Brightness Sun altitude
Exits shadow 22:17:11 12° 260° (W) 2,191 10.1 -34.3°
Maximum altitude 22:18:21 13° 275° (W) 2,139 10.2 -34.4°
Drops below altitude 10° 22:20:48 10° 303° (WNW) 2,365 10.8 -34.6°
Sets 22:24:30 0° 330° (NNW) 3,297 11.9 -34.8°
